Tracking 30743 objects as of 21-Jun-2025
HD Live streaming from Space Station
objects crossing your sky now

STARLINK-5987

Track STARLINK-5987 now!
10-day predictions
STARLINK-5987 is classified as:


NORAD ID: 56455
Int'l Code: 2023-064H
Perigee: 577.2 km
Apogee: 581.2 km
Inclination: 70.0 °
Period: 96.1 minutes
Semi major axis: 6950 km
RCS: Unknown
Launch date: May 10, 2023
Source: United States (US)
Launch site: AIR FORCE WESTERN TEST RANGE (AFWTR)
Your satellite tracking list
Your tracking list is empty




NASA's NSSDC Master Catalog

Two Line Element Set (TLE):
1 56455U 23064H   25171.50200910 -.00000570  00000-0 -39976-4 0  9995
2 56455  69.9998  85.4951 0002842 268.0819  92.0014 14.98329664115970
Source of the keplerian elements: AFSPC